AirNav  
 
 1229 users online  

MU90 Falcon Heliport
Lee's Summit, Missouri, USA

GOING TO LEE'S SUMMIT?


FAA INFORMATION EFFECTIVE 25 MARCH 2021

Location

FAA Identifier: MU90
Lat/Long: 38-57-25.0240N 094-22-35.8210W
38-57.417067N 094-22.597017W
38.9569511,-94.3766169
(estimated)
Elevation: 971 ft. / 296 m (estimated)
Variation: 05E (1990)
From city: 3 miles N of LEES SUMMIT, MO
Time zone: UTC -5 (UTC -6 during Standard Time)
Zip code: 64064

Heliport Operations

Heliport use: Private use. Permission required prior to landing
Activation date: 10/1991
Control tower: no
ARTCC: KANSAS CITY CENTER
FSS: COLUMBIA FLIGHT SERVICE STATION
Attendance: MON-FRI 0830-1700
Segmented circle: no
Lights: FOR PERIMETER LGTS CALL 816-525-5722.

Heliport Communications

WX ASOS at LXT (0.3 nm NE): 124.175 (816-347-9807)
WX ASOS at MKC (14 nm NW): PHONE 816-329-2843
WX ASOS at OJC (18 nm W): 119.35 (913-780-6969)

Nearby radio navigation aids

VOR radial/distance  VOR name  Freq  Var
ANXr227/14.2NAPOLEON VORTAC114.0007E
MCIr135/25.9KANSAS CITY VORTAC113.2505E

Heliport Services

Runway Information

Helipad H1

Dimensions: 80 x 70 ft. / 24 x 21 m
Surface: concrete
Runway edge lights: PERI
Latitude: 38-57.417067N
Longitude: 094-22.597017W
Elevation: 971.0 ft.
Traffic pattern: leftleft

Heliport Ownership and Management from official FAA records

Ownership: Privately-owned
Owner: FALCON HELICOPTER INC
2451 N E DOUGLAS
LEE SUMMIT, MO 64064
Phone 816-525-5723
Manager: BOB SCHLOTZHAUER
12907 MEADOWLARK
LEE SUMMIT, MO 64063
Phone 816-525-5722

Additional Remarks

FOR CD CTC KANSAS CITY APCH AT 816-329-2710.

Instrument Procedures

There are no published instrument procedures at MU90.

Some nearby airports with instrument procedures:

KLXT - Lee's Summit Municipal Airport (0 nm NE)
3GV - East Kansas City Airport (8 nm NE)
KMKC - Charles B Wheeler Downtown Airport (14 nm NW)
KOJC - Johnson CountyExecutive Airport (18 nm W)
KLRY - Lawrence Smith Memorial Airport (21 nm S)
 
Loc | Ops | Rwys | IFR | FBO | Links
Com | Nav | Svcs | Stats | Notes
Area around MU90 (Falcon Heliport)
 
Road maps at: MapQuest Bing Google
 
Aerial photo
No photo
 
Sectional chart

 
Airport distance calculator
Flying to Falcon Heliport? Find the distance to fly.

From to MU90

Sunrise and sunset
Times for 19-Apr-2021
 Local
(UTC-5)
 Zulu
(UTC)
Morning civil twilight06:0811:08
Sunrise06:3611:36
Sunset19:5700:57
Evening civil twilight20:2501:25

Current date and time
Zulu (UTC)  19-Apr-2021 23:21:10
Local (UTC-5)  19-Apr-2021 18:21:10
 
METAR
KLXT 192253Z AUTO 35016G24KT 10SM FEW043 10/01 A3002 RMK AO2 SLP169 T01000006
KMKC 
14nm NW 
192254Z 35015G24KT 10SM FEW045 09/M01 A3004 RMK AO2 SLP174 T00941011
KOJC 
18nm W 
192253Z 01014KT 10SM CLR 11/00 A3001 RMK AO2 SLP163 T01110000
TAF
KMKC 
14nm NW 
191733Z 1918/2018 35011KT P6SM SCT030 BKN100 FM192100 36014G23KT P6SM BKN040 FM200600 03014KT P6SM -SHRA BKN025 FM200900 35010G20KT 3SM -SN OVC009 FM201500 36008KT 6SM BR VCSH OVC015
NOTAMs
Click for the latest NOTAMs
NOTAMs are issued by the DoD/FAA and will open in a separate window not controlled by AirNav.

 

 
 

Would you like to see your business listed on this page?

 If your business provides an interesting product or service to pilots, flight crews, aircraft, or users of the Falcon Heliport, you should consider listing it here.  To start the listing process, click on the button below
 
Add a business
 

Other Pages about Falcon Heliport

Update a link
 
Copyright © AirNav, LLC. All rights reserved. Privacy Policy  Contact